Todos
Liverpool Medical Airport YXLL Condições meteorológicas
There is no TAF data available at YXLL. Showing TAF data for YSBK (3 mi L).
BWU Previsão da área de terminais (sem dados para YXLL)
| Here is the undecoded forecast: 2026/09/04 11:30 YSBK 041130Z 0412/0500 VRB03KT CAVOK RMK FM042000 MOD TURB BLW 5000FT TL042300 FM042300 SEV TURB BLW 5000FT T 15 13 12 13 Q 1019 1017 1015 1014 |
There is no METAR data available at YXLL. Showing METAR data for YSBK (3 mi L).
Histórico recente de METAR BWU (sem dados para YXLL)
| Date | Time (AEST) | Flight Rules | Wind Dir. | Speed | Type | Height AGL (ft) | Visibility | Temp (°C) | Temp (°F) | Dew Point (°C) | Dew Point (°F) | Rel. Humid. | Pressure | Density Altitude | Remarks |
|---|---|---|---|---|---|---|---|---|---|---|---|---|---|---|---|
| 05-Set | 00:00 | VFR | Calm | 10000 meters | 13° | 55° | 10° | 50° | 82% | 1018 mb | -353 ft | ||||
| 04-Set | 23:00 | VFR | 320° | 2 kt | 10000 meters | 14° | 57° | 11° | 51° | 82% | 1018 mb | -233 ft | |||
| 04-Set | 22:00 | VFR | 110° | 1 kt | 10000 meters | 15° | 59° | 10° | 50° | 72% | 1019 mb | -142 ft | |||
| 04-Set | 21:00 | VFR | 100° | 5 kt | 10000 meters | 17° | 62° | 10° | 50° | 63% | 1019 mb | 98 ft | |||
| 04-Set | 20:00 | VFR | 190° | 5 kt | 10000 meters | 16° | 60° | 11° | 51° | 72% | 1018 mb | 7 ft | |||
| 04-Set | 19:00 | VFR | 110° | 4 kt | 10000 meters | 18° | 64° | 10° | 50° | 59% | 1017 mb | 277 ft | |||
| 04-Set | 18:00 | VFR | 60° | 6 kt | 10000 meters | 20° | 68° | 9° | 48° | 49% | 1017 mb | 517 ft | |||
| 04-Set | 17:00 | VFR | 320° | 3 kt | 10000 meters | 23° | 73° | 7° | 44° | 36% | 1016 mb | 907 ft | |||
| 04-Set | 16:00 | VFR | 340° | 5 kt | 10000 meters | 24° | 75° | 6° | 42° | 31% | 1016 mb | 1.027 ft | |||
| 04-Set | 15:00 | VFR | 360° | 4 kt | 10000 meters | 23° | 73° | 7° | 44° | 36% | 1016 mb | 907 ft | |||
| 04-Set | 14:00 | VFR | 280° | 7 kt | 10000 meters | 23° | 73° | 7° | 44° | 36% | 1017 mb | 877 ft | |||
| 04-Set | 13:00 | VFR | 310° | 8 kt | 10000 meters | 22° | 71° | 5° | 41° | 33% | 1018 mb | 727 ft | |||
| 04-Set | 12:00 | VFR | 330° | 7 kt | 10000 meters | 21° | 69° | 3° | 37° | 30% | 1019 mb | 578 ft | |||
| 04-Set | 11:00 | VFR | 280° | 8 kt | 10000 meters | 21° | 69° | 7° | 44° | 40% | 1021 mb | 519 ft | |||
| 04-Set | 10:00 | VFR | 240° | 7 kt | 10000 meters | 19° | 66° | 7° | 44° | 46% | 1021 mb | 279 ft | |||
| 04-Set | 09:00 | VFR | 250° | 6 kt | 10000 meters | 17° | 62° | 8° | 46° | 55% | 1022 mb | 9 ft | |||
| 04-Set | 08:00 | VFR | 300° | 4 kt | 10000 meters | 15° | 59° | 7° | 44° | 59% | 1022 mb | -231 ft | |||
| 04-Set | 07:00 | VFR | Calm | 10000 meters | 11° | 51° | 8° | 46° | 82% | 1021 mb | -681 ft | ||||
| 04-Set | 06:00 | VFR | 310° | 5 kt | Few |
5.100 |
10000 meters | 10° | 50° | 7° | 44° | 82% | 1021 mb | -801 ft | |
| 04-Set | 05:00 | VFR | 300° | 1 kt | Few |
5.500 |
10000 meters | 10° | 50° | 6° | 42° | 76% | 1020 mb | -772 ft | |
| 04-Set | 04:00 | VFR | Calm | 10000 meters | 11° | 51° | 7° | 44° | 76% | 1019 mb | -622 ft | ||||
| 04-Set | 03:00 | VFR | 50° | 2 kt | 10000 meters | 12° | 53° | 6° | 42° | 67% | 1019 mb | -502 ft | |||
| 04-Set | 02:00 | VFR | 280° | 5 kt | 10000 meters | 12° | 53° | 6° | 42° | 67% | 1020 mb | -532 ft | |||
| 04-Set | 01:00 | VFR | 310° | 4 kt | 10000 meters | 14° | 57° | 7° | 44° | 63% | 1020 mb | -292 ft |
Entrar
| Seu navegador não suporta. atualize seu navegador |
